This is the latest recevied weather packets stored in our database for station/object K5BOU. If no packets are shown the sender has not sent any weather packets the latest 10 day(s).
| Time | Temp. | Humidity | Pressure | Rain* | Wind** | Luminosity | Snow |
|---|---|---|---|---|---|---|---|
| 1787881748 | 31.11° C | 72% | 1011 hPa | 0 mm | - | 0 W/m² | - |
| 1787881443 | 31.11° C | 71% | 1011 hPa | 0 mm | - | 0 W/m² | - |
| 1787881139 | 31.67° C | 71% | 1011 hPa | 0 mm | - | 0 W/m² | - |
| 1787880835 | 31.67° C | 71% | 1010.9 hPa | 0 mm | - | 0 W/m² | - |
| 1787880534 | 31.67° C | 71% | 1010.7 hPa | 0 mm | - | 0 W/m² | - |
| 1787880232 | 31.67° C | 70% | 1010.9 hPa | 0 mm | - | 0 W/m² | - |
| 1787879927 | 32.22° C | 70% | 1010.9 hPa | 0 mm | - | 0 W/m² | - |
| 1787879622 | 32.22° C | 68% | 1010.7 hPa | 0 mm | - | 0 W/m² | - |
| 1787879321 | 32.22° C | 68% | 1010.7 hPa | 0 mm | - | 0 W/m² | - |
| 1787879015 | 32.78° C | 67% | 1010.7 hPa | 0 mm | - | 0 W/m² | - |
| 1787878714 | 32.78° C | 67% | 1010.3 hPa | 0 mm | - | 0 W/m² | - |
| 1787878414 | 32.78° C | 66% | 1010.4 hPa | 0 mm | - | 0 W/m² | - |
| 1787878110 | 32.78° C | 67% | 1010.3 hPa | 0 mm | - | 1 W/m² | - |
| 1787877805 | 32.78° C | 67% | 1010.3 hPa | 0 mm | - | 2 W/m² | - |
| 1787877500 | 33.33° C | 67% | 1010.1 hPa | 0 mm | - | 3 W/m² | - |
| 1787877197 | 33.33° C | 67% | 1009.9 hPa | 0 mm | - | 6 W/m² | - |
| 1787876896 | 33.33° C | 66% | 1009.9 hPa | 0 mm | - | 8 W/m² | - |
| 1787876592 | 33.89° C | 67% | 1010 hPa | 0 mm | - | 10 W/m² | - |
| 1787876291 | 33.89° C | 67% | 1009.5 hPa | 0 mm | - | 14 W/m² | - |
| 1787875989 | 34.44° C | 65% | 1009.5 hPa | 0 mm | - | 16 W/m² | - |
| 1787875685 | 35° C | 62% | 1009.5 hPa | 0 mm | - | 19 W/m² | - |
| 1787875384 | 35.56° C | 58% | 1009.4 hPa | 0 mm | - | 26 W/m² | - |
| 1787875083 | 36.11° C | 56% | 1009.2 hPa | 0 mm | - | 38 W/m² | - |
| 1787874778 | 36.67° C | 55% | 1009.2 hPa | 0 mm | - | 51 W/m² | - |
| 1787874476 | 36.67° C | 54% | 1009.2 hPa | 0 mm | - | 79 W/m² | - |
* Rain latest hour (hover to see other rain measurements)
** Current wind speed in m/s (hover to see current wind gust speed)